| time (UTC) | temp F | wind direction | speed knots | gust knots | rain 1hr in | rain 24hr in | rain mn in | humidity % | barometer mb |
| 20260504234516 | 73 | 196 | 2.6 | 5.2 | 0.00 | 0.08 | 0.08 | 46 | 1011.2 |
| 20260504234008 | 74 | 192 | 1.7 | 6.1 | 0.00 | 0.08 | 0.08 | 46 | 1011.2 |
| 20260504233507 | 74 | 196 | 3.5 | 6.1 | 0.00 | 0.08 | 0.08 | 48 | 1011.1 |
| 20260504233020 | 74 | 220 | 3.5 | 7.8 | 0.00 | 0.08 | 0.08 | 48 | 1011.1 |
| 20260504232507 | 74 | 232 | 2.6 | 7.8 | 0.00 | 0.08 | 0.08 | 48 | 1011.0 |
| 20260504232004 | 74 | 248 | 3.5 | 7.0 | 0.00 | 0.08 | 0.08 | 47 | 1011.0 |
| 20260504231508 | 74 | 245 | 3.5 | 8.7 | 0.00 | 0.08 | 0.08 | 47 | 1011.0 |
| 20260504231004 | 74 | 220 | 5.2 | 9.6 | 0.00 | 0.08 | 0.08 | 45 | 1011.1 |
| 20260504230504 | 74 | 236 | 4.3 | 9.6 | 0.00 | 0.08 | 0.08 | 47 | 1011.1 |
| 20260504230010 | 74 | 231 | 4.3 | 9.6 | 0.00 | 0.08 | 0.08 | 48 | 1011.2 |
| 20260504225505 | 75 | 228 | 5.2 | 8.7 | 0.00 | 0.08 | 0.08 | 46 | 1011.1 |
| 20260504225006 | 74 | 239 | 6.1 | 8.7 | 0.00 | 0.08 | 0.08 | 45 | 1011.1 |
| 20260504225002 | 74 | 240 | 6.1 | 8.7 | 0.00 | 0.08 | 0.08 | 45 | 1011.1 |
| 20260504224510 | 74 | 214 | 3.5 | 9.6 | 0.00 | 0.08 | 0.08 | 47 | 1011.1 |
| 20260504224003 | 74 | 235 | 5.2 | 13.0 | 0.00 | 0.08 | 0.08 | 47 | 1011.1 |
| 20260504223503 | 74 | 241 | 7.0 | 13.0 | 0.00 | 0.08 | 0.08 | 49 | 1011.2 |
| 20260504223010 | 74 | 219 | 5.2 | 9.6 | 0.00 | 0.08 | 0.08 | 49 | 1011.2 |
| 20260504222503 | 74 | 238 | 4.3 | 9.6 | 0.00 | 0.08 | 0.08 | 48 | 1011.2 |
| 20260504222002 | 74 | 213 | 6.1 | 10.4 | 0.00 | 0.08 | 0.08 | 47 | 1011.2 |
| 20260504221507 | 74 | 220 | 5.2 | 10.4 | 0.00 | 0.08 | 0.08 | 47 | 1011.2 |
| 20260504221004 | 74 | 210 | 5.2 | 7.8 | 0.00 | 0.08 | 0.08 | 45 | 1011.3 |
| 20260504220504 | 74 | 240 | 4.3 | 9.6 | 0.00 | 0.08 | 0.08 | 47 | 1011.2 |
| 20260504220012 | 74 | 254 | 6.1 | 12.2 | 0.00 | 0.08 | 0.08 | 47 | 1011.3 |
| 20260504215506 | 74 | 229 | 6.1 | 12.2 | 0.00 | 0.08 | 0.08 | 41 | 1011.3 |
| 20260504215002 | 74 | 264 | 7.0 | 11.3 | 0.00 | 0.08 | 0.08 | 48 | 1011.4 |
| 20260504214506 | 74 | 232 | 6.1 | 11.3 | 0.00 | 0.08 | 0.08 | 46 | 1011.3 |
| 20260504214002 | 74 | 211 | 4.3 | 13.0 | 0.00 | 0.08 | 0.08 | 45 | 1011.5 |
| 20260504213503 | 74 | 229 | 7.0 | 13.0 | 0.00 | 0.08 | 0.08 | 46 | 1011.5 |
| 20260504213003 | 75 | 231 | 6.1 | 9.6 | 0.00 | 0.08 | 0.08 | 42 | 1011.5 |
| 20260504212503 | 74 | 234 | 4.3 | 13.9 | 0.00 | 0.08 | 0.08 | 46 | 1011.4 |
| 20260504212004 | 75 | 264 | 7.0 | 13.9 | 0.00 | 0.08 | 0.08 | 44 | 1011.4 |
| 20260504211503 | 74 | 257 | 8.7 | 13.9 | 0.00 | 0.08 | 0.08 | 44 | 1011.4 |
| 20260504211003 | 74 | 252 | 7.0 | 13.0 | 0.00 | 0.08 | 0.08 | 45 | 1011.4 |
| 20260504210503 | 74 | 231 | 7.0 | 12.2 | 0.00 | 0.08 | 0.08 | 43 | 1011.3 |
| 20260504210016 | 74 | 237 | 5.2 | 12.2 | 0.00 | 0.08 | 0.08 | 44 | 1011.3 |
| 20260504205503 | 74 | 251 | 7.0 | 12.2 | 0.00 | 0.08 | 0.08 | 47 | 1011.4 |
| 20260504205003 | 74 | 238 | 6.1 | 11.3 | 0.00 | 0.08 | 0.08 | 44 | 1011.3 |
| 20260504204509 | 74 | 238 | 6.1 | 14.8 | 0.00 | 0.08 | 0.08 | 47 | 1011.4 |
| 20260504204006 | 74 | 239 | 6.1 | 14.8 | 0.00 | 0.08 | 0.08 | 46 | 1011.5 |
| 20260504203502 | 74 | 252 | 4.3 | 8.7 | 0.00 | 0.08 | 0.08 | 47 | 1011.5 |
| 20260504203002 | 74 | 245 | 4.3 | 8.7 | 0.00 | 0.08 | 0.08 | 46 | 1011.4 |
| 20260504202502 | 74 | 228 | 4.3 | 9.6 | 0.00 | 0.08 | 0.08 | 45 | 1011.4 |
| 20260504202002 | 74 | 218 | 5.2 | 10.4 | 0.00 | 0.08 | 0.08 | 46 | 1011.4 |
| 20260504201504 | 74 | 226 | 5.2 | 14.8 | 0.00 | 0.08 | 0.08 | 46 | 1011.5 |
| 20260504201003 | 75 | 221 | 6.1 | 14.8 | 0.00 | 0.08 | 0.08 | 41 | 1011.5 |
| 20260504200504 | 75 | 231 | 7.0 | 14.8 | 0.00 | 0.08 | 0.08 | 42 | 1011.5 |
| 20260504200003 | 75 | 216 | 3.5 | 7.8 | 0.00 | 0.08 | 0.08 | 41 | 1011.6 |
| 20260504195504 | 75 | 218 | 4.3 | 7.8 | 0.00 | 0.08 | 0.08 | 38 | 1011.6 |
| 20260504195003 | 74 | 248 | 4.3 | 8.7 | 0.00 | 0.08 | 0.08 | 43 | 1011.7 |
| 20260504194508 | 74 | 245 | 4.3 | 8.7 | 0.00 | 0.08 | 0.08 | 41 | 1011.8 |
| 20260504194006 | 74 | 235 | 3.5 | 8.7 | 0.00 | 0.08 | 0.08 | 41 | 1012.0 |
| 20260504193506 | 74 | 249 | 3.5 | 8.7 | 0.00 | 0.08 | 0.08 | 43 | 1012.0 |
| 20260504193022 | 74 | 260 | 5.2 | 9.6 | 0.00 | 0.08 | 0.08 | 40 | 1012.0 |
| 20260504192507 | 74 | 241 | 4.3 | 9.6 | 0.00 | 0.08 | 0.08 | 39 | 1012.1 |
| 20260504192002 | 74 | 243 | 5.2 | 8.7 | 0.00 | 0.08 | 0.08 | 38 | 1012.1 |
| 20260504191506 | 74 | 247 | 4.3 | 8.7 | 0.00 | 0.08 | 0.08 | 37 | 1012.2 |
| 20260504191002 | 74 | 238 | 5.2 | 11.3 | 0.00 | 0.08 | 0.08 | 39 | 1012.3 |
| 20260504190504 | 74 | 255 | 6.1 | 11.3 | 0.00 | 0.08 | 0.08 | 40 | 1012.4 |
| 20260504190018 | 73 | 240 | 7.0 | 11.3 | 0.00 | 0.08 | 0.08 | 38 | 1012.5 |
| 20260504185504 | 73 | 246 | 4.3 | 11.3 | 0.00 | 0.08 | 0.08 | 43 | 1012.6 |
| 20260504185004 | 73 | 269 | 6.1 | 11.3 | 0.00 | 0.08 | 0.08 | 41 | 1012.7 |
| 20260504184504 | 73 | 255 | 5.2 | 8.7 | 0.00 | 0.08 | 0.08 | 41 | 1012.8 |
| 20260504184005 | 72 | 231 | 4.3 | 7.8 | 0.00 | 0.08 | 0.08 | 45 | 1012.8 |
| 20260504183506 | 73 | 245 | 4.3 | 7.0 | 0.00 | 0.08 | 0.08 | 43 | 1012.9 |
| 20260504183014 | 73 | 360 | 2.6 | 7.0 | 0.00 | 0.08 | 0.08 | 42 | 1013.0 |
| 20260504182508 | 72 | 360 | 1.7 | 6.1 | 0.00 | 0.08 | 0.08 | 45 | 1013.0 |
| 20260504182007 | 72 | 203 | 2.6 | 6.1 | 0.00 | 0.08 | 0.08 | 42 | 1013.2 |
| 20260504181514 | 72 | 264 | 2.6 | 5.2 | 0.00 | 0.08 | 0.08 | 43 | 1013.2 |
| 20260504181006 | 72 | 189 | 0.9 | 7.0 | 0.00 | 0.08 | 0.08 | 52 | 1013.3 |
| 20260504180503 | 71 | 205 | 3.5 | 7.0 | 0.00 | 0.08 | 0.08 | 43 | 1013.3 |
| 20260504180005 | 70 | 188 | 0.9 | 7.0 | 0.00 | 0.08 | 0.08 | 49 | 1013.4 |
| 20260504175504 | 69 | 184 | 1.7 | 7.0 | 0.00 | 0.08 | 0.08 | 50 | 1013.4 |
| 20260504175008 | 69 | 222 | 2.6 | 7.0 | 0.00 | 0.08 | 0.08 | 45 | 1013.4 |
| 20260504174508 | 70 | 122 | 4.3 | 7.0 | 0.00 | 0.08 | 0.08 | 54 | 1013.5 |
| 20260504174004 | 71 | 180 | 1.7 | 7.8 | 0.00 | 0.08 | 0.08 | 49 | 1013.5 |
| 20260504173503 | 71 | 224 | 4.3 | 7.8 | 0.00 | 0.08 | 0.08 | 39 | 1013.6 |
| 20260504173018 | 70 | 217 | 3.5 | 7.0 | 0.00 | 0.08 | 0.08 | 41 | 1013.7 |
| 20260504172503 | 70 | 188 | 5.2 | 7.0 | 0.00 | 0.08 | 0.08 | 41 | 1013.6 |
| 20260504172006 | 69 | 230 | 2.6 | 6.1 | 0.00 | 0.08 | 0.08 | 46 | 1013.8 |
| 20260504171516 | 68 | 259 | 2.6 | 5.2 | 0.00 | 0.08 | 0.08 | 46 | 1013.9 |
| 20260504171007 | 67 | 259 | 0.9 | 4.3 | 0.01 | 0.08 | 0.08 | 54 | 1013.9 |
| 20260504170506 | 67 | 137 | 2.6 | 6.1 | 0.03 | 0.08 | 0.08 | 51 | 1014.1 |
| 20260504151010 | 64 | 230 | 2.6 | 5.2 | 0.00 | 0.00 | 0.00 | 52 | 1015.2 |
| 20260504150503 | 64 | 242 | 2.6 | 5.2 | 0.00 | 0.00 | 0.00 | 51 | 1015.2 |
| 20260504141003 | 60 | 304 | 3.5 | 6.1 | 0.00 | 0.00 | 0.00 | 60 | 1015.4 |
| 20260504140503 | 60 | 264 | 3.5 | 8.7 | 0.00 | 0.00 | 0.00 | 60 | 1015.4 |
| 20260504130502 | 57 | 259 | 7.0 | 8.7 | 0.00 | 0.00 | 0.00 | 62 | 1015.8 |
| 20260504110504 | 55 | 224 | 4.3 | 11.3 | 0.00 | 0.00 | 0.00 | 66 | 1016.4 |
| 20260504100503 | 55 | 229 | 7.8 | 16.5 | 0.00 | 0.00 | 0.00 | 65 | 1016.4 |
| 20260504082008 | 55 | 234 | 3.5 | 8.7 | 0.00 | 0.00 | 0.00 | 68 | 1016.5 |
| 20260504081512 | 55 | 211 | 3.5 | 7.0 | 0.00 | 0.00 | 0.00 | 67 | 1016.5 |
| 20260504081006 | 55 | 212 | 1.7 | 7.0 | 0.00 | 0.00 | 0.00 | 69 | 1016.5 |
| 20260504080507 | 55 | 195 | 1.7 | 8.7 | 0.00 | 0.00 | 0.00 | 68 | 1016.5 |
| 20260504050502 | 57 | 206 | 1.7 | 7.8 | 0.00 | 0.00 | 0.00 | 60 | 1016.6 |
| 20260504050009 | 57 | 169 | 2.6 | 8.7 | 0.00 | 0.00 | 0.00 | 60 | 1016.7 |
| 20260504045503 | 57 | 184 | 4.3 | 8.7 | 0.00 | 0.00 | 0.00 | 58 | 1016.6 |
| 20260504045007 | 58 | 165 | 3.5 | 8.7 | 0.00 | 0.00 | 0.00 | 60 | 1016.6 |
| 20260504044519 | 58 | 153 | 1.7 | 7.0 | 0.00 | 0.00 | 0.00 | 62 | 1016.6 |
| 20260504044007 | 58 | 203 | 4.3 | 7.0 | 0.00 | 0.00 | 0.00 | 61 | 1016.7 |
| 20260504043506 | 58 | 162 | 1.7 | 6.1 | 0.00 | 0.00 | 0.00 | 61 | 1016.7 |
| 20260504043027 | 57 | 193 | 2.6 | 7.0 | 0.00 | 0.00 | 0.00 | 63 | 1016.7 |
| 20260504042508 | 57 | 177 | 2.6 | 7.0 | 0.00 | 0.00 | 0.00 | 62 | 1016.7 |
| 20260504042008 | 57 | 157 | 2.6 | 7.0 | 0.00 | 0.00 | 0.00 | 61 | 1016.7 |
| 20260504041524 | 57 | 181 | 3.5 | 7.0 | 0.00 | 0.00 | 0.00 | 63 | 1016.7 |
| 20260504041007 | 58 | 170 | 2.6 | 7.0 | 0.00 | 0.00 | 0.00 | 61 | 1016.7 |
| 20260504040509 | 58 | 193 | 1.7 | 7.0 | 0.00 | 0.00 | 0.00 | 61 | 1016.6 |
| 20260504040012 | 58 | 178 | 2.6 | 6.1 | 0.00 | 0.00 | 0.00 | 61 | 1016.5 |
| 20260504035503 | 58 | 166 | 3.5 | 6.1 | 0.00 | 0.00 | 0.00 | 60 | 1016.5 |
| 20260504035005 | 58 | 179 | 1.7 | 4.3 | 0.00 | 0.00 | 0.00 | 63 | 1016.5 |
| 20260504034511 | 58 | 193 | 1.7 | 4.3 | 0.00 | 0.00 | 0.00 | 62 | 1016.6 |
| 20260504034010 | 58 | 175 | 1.7 | 4.3 | 0.00 | 0.00 | 0.00 | 63 | 1016.6 |
| 20260504033511 | 58 | 173 | 0.9 | 4.3 | 0.00 | 0.00 | 0.00 | 63 | 1016.6 |
| 20260504033019 | 58 | 168 | 1.7 | 6.1 | 0.00 | 0.00 | 0.00 | 61 | 1016.6 |
| 20260504032507 | 58 | 176 | 2.6 | 6.1 | 0.00 | 0.00 | 0.00 | 57 | 1016.5 |
| 20260504032007 | 58 | 196 | 1.7 | 5.2 | 0.00 | 0.00 | 0.00 | 60 | 1016.5 |
| 20260504031521 | 58 | 185 | 1.7 | 7.0 | 0.00 | 0.00 | 0.00 | 59 | 1016.5 |
| 20260504031013 | 58 | 181 | 1.7 | 7.0 | 0.00 | 0.00 | 0.00 | 59 | 1016.4 |
| 20260504030512 | 58 | 185 | 2.6 | 6.1 | 0.00 | 0.00 | 0.00 | 58 | 1016.4 |
| 20260504030020 | 58 | 192 | 3.5 | 6.1 | 0.00 | 0.00 | 0.00 | 58 | 1016.5 |
| 20260504025512 | 58 | 167 | 0.9 | 5.2 | 0.00 | 0.00 | 0.00 | 63 | 1016.4 |
| 20260504025004 | 59 | 187 | 2.6 | 5.2 | 0.00 | 0.00 | 0.00 | 61 | 1016.5 |
| 20260504024514 | 59 | 180 | 0.9 | 3.5 | 0.00 | 0.00 | 0.00 | 60 | 1016.4 |
| 20260504024004 | 59 | 180 | 1.7 | 3.5 | 0.00 | 0.00 | 0.00 | 60 | 1016.4 |
| 20260504023504 | 59 | 190 | 0.9 | 3.5 | 0.00 | 0.00 | 0.00 | 60 | 1016.4 |
| 20260504023003 | 59 | 191 | 1.7 | 4.3 | 0.00 | 0.00 | 0.00 | 60 | 1016.4 |
| 20260504022502 | 59 | 176 | 0.9 | 4.3 | 0.00 | 0.00 | 0.00 | 59 | 1016.5 |
| 20260504022003 | 59 | 191 | 2.6 | 5.2 | 0.00 | 0.00 | 0.00 | 58 | 1016.5 |
| 20260504021503 | 59 | 185 | 2.6 | 5.2 | 0.00 | 0.00 | 0.00 | 58 | 1016.5 |
| 20260504021004 | 59 | 186 | 2.6 | 5.2 | 0.00 | 0.00 | 0.00 | 58 | 1016.4 |
| 20260504020504 | 59 | 195 | 2.6 | 4.3 | 0.00 | 0.00 | 0.00 | 58 | 1016.4 |
| 20260504020003 | 59 | 200 | 1.7 | 3.5 | 0.00 | 0.00 | 0.00 | 58 | 1016.3 |
| 20260504015503 | 59 | 199 | 0.9 | 6.1 | 0.00 | 0.00 | 0.00 | 58 | 1016.3 |
| 20260504015005 | 59 | 199 | 1.7 | 6.1 | 0.00 | 0.00 | 0.00 | 58 | 1016.3 |
| 20260504014508 | 58 | 193 | 3.5 | 5.2 | 0.00 | 0.00 | 0.00 | 59 | 1016.2 |
| 20260504014004 | 58 | 174 | 0.0 | 1.7 | 0.00 | 0.00 | 0.00 | 65 | 1016.2 |
| 20260504013505 | 58 | 174 | 0.0 | 2.6 | 0.00 | 0.00 | 0.00 | 65 | 1016.2 |
| 20260504013017 | 58 | 174 | 0.9 | 2.6 | 0.00 | 0.00 | 0.00 | 64 | 1016.3 |
| 20260504012504 | 58 | 176 | 1.7 | 5.2 | 0.00 | 0.00 | 0.00 | 66 | 1016.2 |
| 20260504012007 | 57 | 181 | 2.6 | 5.2 | 0.00 | 0.00 | 0.00 | 70 | 1016.2 |
| 20260504011508 | 56 | 180 | 0.0 | 2.6 | 0.00 | 0.00 | 0.00 | 67 | 1016.0 |
| 20260504011002 | 56 | 332 | 0.0 | 0.0 | 0.00 | 0.00 | 0.00 | 65 | 1016.0 |
| 20260504010504 | 56 | 332 | 0.0 | 0.0 | 0.00 | 0.00 | 0.00 | 63 | 1015.9 |
| 20260504010005 | 56 | 332 | 0.0 | 0.0 | 0.00 | 0.00 | 0.00 | 62 | 1015.9 |
| 20260504005504 | 56 | 332 | 0.0 | 1.7 | 0.00 | 0.00 | 0.00 | 64 | 1015.8 |
| 20260504005006 | 56 | 332 | 0.0 | 1.7 | 0.00 | 0.00 | 0.00 | 64 | 1015.8 |
| 20260504004506 | 55 | 331 | 0.0 | 1.7 | 0.00 | 0.00 | 0.00 | 63 | 1015.8 |
| 20260504004005 | 55 | 330 | 0.0 | 0.0 | 0.00 | 0.00 | 0.00 | 63 | 1015.8 |
| 20260504003506 | 55 | 330 | 0.0 | 0.0 | 0.00 | 0.00 | 0.00 | 63 | 1015.8 |
| 20260504003006 | 55 | 330 | 0.0 | 0.0 | 0.00 | 0.00 | 0.00 | 60 | 1015.7 |
| 20260504002504 | 56 | 330 | 0.0 | 0.0 | 0.00 | 0.00 | 0.00 | 59 | 1015.6 |
| 20260504002009 | 56 | 331 | 0.0 | 0.0 | 0.00 | 0.00 | 0.00 | 61 | 1015.5 |
| 20260504001516 | 57 | 332 | 0.0 | 0.0 | 0.00 | 0.00 | 0.00 | 60 | 1015.5 |
| 20260504001005 | 57 | 332 | 0.0 | 0.0 | 0.00 | 0.00 | 0.00 | 59 | 1015.4 |
| 20260504000507 | 57 | 331 | 0.0 | 0.0 | 0.00 | 0.00 | 0.00 | 55 | 1015.3 |
| 20260504000003 | 58 | 331 | 0.0 | 0.0 | 0.00 | 0.00 | 0.00 | 55 | 1015.3 |
| 20260503235502 | 59 | 333 | 0.0 | 1.7 | 0.00 | 0.00 | 0.00 | 53 | 1015.3 |
| 20260503235003 | 60 | 330 | 0.9 | 1.7 | 0.00 | 0.00 | 0.00 | 51 | 1015.2 |